Location: Old Broadwell Mill Observatory
(33.8015°N, 85.8137°W)
Time: 23:54:06
(UTC-05:00)

Daily predictions for brighter satellites

Satellite Brightness Start Highest point End
(mag) Time Altitude Azimuth Time Altitude Azimuth Time Altitude Azimuth
Spot 2 Rocket 3.6 20:04:44 10° SSE 20:09:44 66° ENE 20:14:44 10° N
Cosmos 372 Rocket 4.0 20:05:24 10° NNW 20:10:36 84° ENE 20:15:44 10° SSE
ASTRO E2 2.9 20:10:47 10° WSW 20:14:41 53° S 20:18:34 10° E
Cosmos 1386 Rocket 4.5 20:09:44 10° N 20:15:56 83° E 20:21:57 10° S
H-2A R/B 3.5 20:15:42 10° S 20:19:20 53° W 20:22:58 10° NNW
Cosmos 1125 Rocket 4.2 20:15:55 10° NNW 20:21:07 58° WSW 20:26:14 10° S
Cosmos 1340 4.2 20:17:48 10° SSW 20:21:23 41° W 20:25:00 10° N
Genesis I 4.4 20:20:17 10° NW 20:23:59 39° WSW 20:27:40 10° S
Helios 1A 3.7 20:20:16 10° SE 20:24:10 37° ENE 20:28:03 10° N
Resurs 1-3 3.7 20:21:05 10° S 20:25:28 84° WSW 20:29:53 10° NNW
Resurs 01 Rocket 2.1 20:24:55 10° S 20:29:19 65° WSW 20:33:44 10° NNW
Cosmos 292 Rocket 3.7 20:26:31 10° S 20:31:18 72° ESE 20:36:08 10° NNE
Envisat 3.3 20:26:46 10° SSE 20:31:39 51° ENE 20:36:34 10° N
Cosmos 1544 Rocket 3.8 20:30:30 10° N 20:34:42 50° E 20:38:49 10° SSE
Cosmos 724 4.3 20:28:56 10° NNW 20:34:57 76° ENE 20:40:26 12° SSE
Iridium 4 Rocket 3.5 20:35:07 10° N 20:40:09 87° E 20:45:39 10° S
ASTEX 1 4.5 20:43:58 16° ESE 20:46:46 27° ENE 20:50:50 10° NNE
CZ-4B DEB 4.5 20:47:45 12° SSE 20:50:55 89° WNW 20:54:27 10° NNW
RESURS DK-1 3.8 20:47:05 10° SW 20:50:59 41° WNW 20:54:55 10° N
Aureole 3 Rocket 4.3 20:46:04 10° SSE 20:53:18 50° E 20:58:31 10° NNE
NOSS 2-2 (E) 3.5 20:51:38 10° SSW 20:55:35 81° WNW 20:59:58 10° NNE
Okean 1 4.1 20:52:52 10° SSW 20:56:44 52° W 21:00:36 10° N
Spot 1 4.2 20:55:49 13° SSE 21:00:05 86° W 21:04:31 10° NNW
Cosmos 1455 Rocket 3.0 20:55:51 10° N 21:00:13 86° E 21:03:42 16° S
Cosmos 923 Rocket 4.0 20:55:17 10° S 21:00:33 66° ESE 21:05:50 10° NNE
Cosmos 405 Rocket 2.7 20:59:12 18° SSE 21:01:44 55° E 21:05:26 10° NNE
Cosmos 2369 Rocket 3.3 20:57:22 10° NW 21:02:38 41° WSW 21:07:54 10° S
Cosmos 1975 2.9 20:58:39 10° N 21:02:43 80° W 21:06:00 15° S
Cosmos 1346 3.3 21:03:17 39° E 21:03:19 39° E 21:05:57 10° NNE
YAOGAN 6 2.6 21:05:25 32° SE 21:06:48 56° ENE 21:10:14 10° N
Tiangong 2 0.9 21:03:53 10° SW 21:07:01 66° SSE 21:08:38 26° ENE
Helios 1B rocket 3.4 21:03:11 10° N 21:07:11 49° WNW 21:11:09 10° SSW
Cosmos 1656 Rocket 4.1 21:02:20 10° N 21:07:32 44° ENE 21:10:13 26° ESE
Abrixas 4.1 21:05:36 10° W 21:07:47 21° SW 21:08:28 19° SSW
SAR-Lupe-4 3.8 21:06:11 19° S 21:08:37 68° WSW 21:12:11 10° NNW
Meteor 1-13 Rocket 4.3 21:03:56 10° S 21:09:52 79° E 21:15:48 10° N
ISS -2.1 21:08:38 10° SSW 21:09:54 20° S 21:09:54 20° S
Cosmos 1939 Rocket 3.0 21:09:19 18° S 21:12:04 66° W 21:15:55 10° NNW
COSMOS 2455 2.8 21:08:15 10° NNW 21:14:18 90° WSW 21:18:02 25° SSE
Meteor 1-29 4.2 21:11:49 10° N 21:15:00 40° WNW 21:18:09 10° SW
Cosmos 1441 Rocket 3.6 21:15:21 38° ESE 21:15:47 40° E 21:19:18 10° NNE
Cosmos 1437 4.0 21:16:40 10° SSW 21:19:42 41° W 21:22:47 10° N
Cosmos 1943 Rocket 2.7 21:16:07 10° NNW 21:21:34 55° WSW 21:25:30 18° S
OAO 2 Rocket 3.2 21:17:06 10° WSW 21:22:04 89° SSW 21:25:27 21° E
Cosmos 2327 Rocket 4.5 21:17:40 10° N 21:23:50 66° E 21:27:15 28° SSE
ERS-1 Rocket 2.9 21:21:30 31° SSE 21:23:54 70° ENE 21:28:54 10° N
NOAA 11 4.4 21:22:31 31° SE 21:24:55 55° ENE 21:30:14 10° N
H-2A R/B 3.3 21:24:04 21° E 21:24:57 22° ENE 21:28:42 10° NNE
COSMOS 2406 3.3 21:19:41 10° SSW 21:25:26 83° WNW 21:31:11 10° NNE
Okean 1-7 Rocket 3.8 21:25:22 40° SE 21:26:26 50° E 21:30:46 10° NNE
CZ-4B DEB 4.3 21:27:35 21° SW 21:28:52 29° W 21:31:32 10° NW
Cosmos 2112 Rocket 3.9 21:28:15 10° SSW 21:33:27 87° ESE 21:38:41 10° NNE
USA 267 4.2 21:28:34 10° ENE 21:32:18 25° E 21:32:18 25° E
ARGOS 3.5 21:32:24 36° ESE 21:34:03 47° ENE 21:39:13 10° N
CZ-3B Rocket 3.8 21:33:09 10° SSW 21:53:53 - E 21:35:28 21° S
Cosmos 2082 Rocket 4.2 21:43:04 13° ENE 21:43:04 13° ENE 21:44:10 10° ENE
DNEPR-1 R/B 4.2 21:39:14 10° NNW 21:43:18 41° ENE 21:43:52 39° ENE
Cosmos 1743 3.5 21:40:15 10° NNW 21:44:01 48° W 21:45:15 34° SW
Intercosmos 24 4.2 21:43:05 10° N 21:46:21 45° NE 21:46:21 45° NE
Cosmos 2181 Rocket 4.5 21:46:01 38° ESE 21:47:07 41° E 21:52:59 10° NNE
Okean 2 3.5 21:48:38 56° ENE 21:48:38 56° ENE 21:52:17 10° NNE
SL-27 R/B 2.9 21:50:50 52° WSW 21:51:24 61° WNW 21:55:02 10° N
CENTAUR R/B 3.1 21:43:45 10° NNW 21:51:53 89° ENE 21:55:43 38° SSE
Cosmos 2184 Rocket 4.3 21:46:39 10° NNW 21:52:56 67° W 21:56:27 27° SSW
Cosmos 192 4.5 21:50:22 23° SSW 21:53:24 72° WNW 21:58:18 10° NNE
Cosmos 2074 Rocket 4.4 21:48:05 10° NNW 21:54:13 62° W 21:57:50 26° SSW
Aureole 1 Rocket 3.7 21:53:35 26° WSW 21:55:00 38° WNW 21:57:59 10° N
ASTRO E2 3.3 21:51:10 10° W 21:54:11 44° WSW 21:54:11 44° WSW
YAOGAN 11 3.8 21:54:50 76° SSE 21:55:09 87° ENE 21:59:28 10° NNW
Cosmos 1610 Rocket 4.4 21:51:29 10° N 21:57:47 88° W 22:00:04 42° S
Cosmos 1437 Rocket 3.9 21:54:55 10° N 21:57:30 33° NE 21:57:30 33° NE
Cosmos 1606 Rocket 4.1 21:58:12 10° N 22:01:41 44° NE 22:01:41 44° NE
MetOp-B 4.2 22:01:03 45° S 22:02:37 70° WSW 22:07:58 10° NNW
Cosmos 2056 Rocket 4.3 21:59:33 10° N 22:04:18 36° ENE 22:04:18 36° ENE
Cosmos 405 3.8 22:01:46 10° N 22:04:29 50° NNW 22:04:29 50° NNW
Meteor 2-9 Rocket 4.4 22:06:28 10° NNW 22:11:52 63° W 22:13:22 46° SSW
SPOT 5 2.7 22:13:46 66° W 22:13:46 66° W 22:18:01 10° NNW
Cosmos 1726 Rocket 4.3 22:09:30 10° N 22:12:47 44° NE 22:12:47 44° NE
SPOT 1/Viking Rocket 3.4 22:15:22 78° SE 22:15:41 85° ENE 22:20:53 10° NNW
Landsat 7 4.2 22:17:21 52° NE 22:17:21 52° NE 22:21:30 10° N
Cosmos 1666 4.4 22:13:48 10° NNW 22:16:59 26° W 22:17:11 26° W
Cosmos 2058 Rocket 4.2 22:13:27 10° N 22:16:28 35° NE 22:16:28 35° NE
SL-08 RB Rocket 3.8 22:20:54 67° W 22:20:54 67° W 22:25:08 10° NNW
Cosmos 1025 Rocket 4.3 22:22:45 32° WSW 22:23:35 35° W 22:27:31 10° NNW
Cosmos 962 Rocket 4.3 22:17:31 10° N 22:23:47 83° E 22:24:35 69° SSE
Cosmos 1833 Rocket 3.8 22:28:30 30° ENE 22:28:30 30° ENE 22:31:42 10° NE
Terra 2.5 22:32:52 46° NNE 22:32:52 46° NNE 22:36:34 10° N
Cosmos 2154 Rocket 4.5 22:30:10 10° NNW 22:36:21 56° W 22:37:55 45° SW
SL-8 Rocket 3.9 22:36:24 10° N 22:42:35 70° E 22:42:35 70° E
Cosmos 1371 Rocket 4.2 22:38:11 10° NNW 22:43:04 65° WNW 22:43:04 65° WNW
H-2A R/B 3.1 22:45:08 44° N 22:45:08 44° N 22:48:18 10° N
Cosmos 2366 rocket 4.3 22:40:06 10° N 22:45:36 51° ENE 22:45:36 51° ENE
Cosmos 1980 Rocket 4.0 22:54:03 10° NNE 22:57:51 19° NE 22:57:51 19° NE
H-2A R/B 3.3 23:04:42 32° W 23:04:42 32° W 23:08:36 10° NNW
USA 267 3.5 23:10:45 10° NE 23:17:13 66° NW 23:19:33 41° WSW
Cosmos 2218 Rocket 4.2 23:14:47 10° NNW 23:20:19 64° WNW 23:20:19 64° WNW
Cosmos 2082 Rocket 2.9 23:24:51 51° NW 23:24:51 51° NW 23:29:49 10° N
Cosmos 2278 4.4 23:19:31 10° NNW 23:23:52 51° NW 23:23:52 51° NW
SeaSat 1 4.2 23:29:44 26° NNE 23:29:44 26° NNE 23:32:45 10° N
Nadezhda 3 Rocket 4.4 23:48:00 61° N 23:48:00 61° N 23:53:12 10° N
CZ-2C R/B 4.1 23:41:49 10° NNE 23:44:57 32° NE 23:44:57 32° NE
SL-16 R/B 4.2 23:50:28 10° NNE 23:54:09 19° NE 23:54:09 19° NE
